Location: Elmsmere
(40.9284°N, 73.8207°W)
Time: 05:40:30
(UTC+00:00)

Cosmos 1892 - Pass Details

Date: 29 October 2020
Orbit: 504 x 524 km, 82.5° (Epoch: 29 November)

Event Time Altitude Azimuth Distance (km) Brightness Sun altitude
Rises 23:15:35 0° 350° (N) 2,664 6.4 -15.9°
Reaches altitude 10° 23:17:44 10° 349° (N) 1,772 5.5 -16.3°
Maximum altitude 23:21:37 76° 264° (W) 545 2.8 -17.0°
Drops below altitude 10° 23:25:28 10° 179° (S) 1,756 5.4 -17.7°
Sets 23:27:35 0° 177° (S) 2,638 6.3 -18.1°
